WGS F4 (USA 233)

Last updated on Sun Apr 12 2026 00:02:52 GMT+0000 (Coordinated Universal Time)

1 38070U 12003A 26101.47378300 -.00000214 00000+0 00000+0 0 9992 2 38070 0.0109 209.6288 0000269 209.3379 39.7172 1.00272257 43478
UTC large
Height (km)
Speed (km/s)
/
Latitude / Longitude
Inclination (degrees)
Orbital Period (minutes)
Azimuth
Elevation
Range (km)
Doppler Factor

Next 0 passes for location: London (51.5072 / 0.1276)

Sorry there are no passes over London.
WGS F4 (USA 233)